User: anonymous   Login
Location: Unspecified
(40.8819°N, 0.0000°E)
Time: 05:13:15
(UTC+00:00)
Language:

MOZHAYETS 4 - Orbit

View from above orbital plane
View from above orbital plane
View from above satellite
View from above satellite

Ground track
Ground track

The orbit data is extracted from the following two-line orbital elements,

1 27939U 03042A   24106.87324274  .00002689  00000-0  46061-3 0  9994
2 27939  98.2831 262.1279 0011063 255.1211 263.4643 14.69609245 99125
Epoch (UTC): 15 April 2024 20:57:28
Eccentricity: 0.0011063
inclination: 98.2831°
perigee height: 654 km
apogee height: 670 km
right ascension of ascending node: 262.1279°
argument of perigee: 255.1211°
revolutions per day: 14.69609245
mean anomaly at epoch: 263.4643°
orbit number at epoch: 9912

The dashed part of the orbit path shows where the satellite is in the earth's shadow,  

DLR